AAL2034 KSAN-KDFW

Flight info

Callsign AAL2034
Flight time 2h 23m
Altitude 35000
Route ZZOOO4 GBN J50 SSO J4 INK GEEKY SHMPP3
Aircraft A321/M-SDE3FGHIRWY/LB1

Departure

Time 2026-05-07 19:45
Airport San Diego International Airport (KSAN)

Arrival

Time 2026-05-07 22:09
Airport Dallas Fort Worth International Airport (KDFW)
Time Latitude Longitude Altitude Speed Heading
2026-05-07 19:10 32.73291 -117.20170 23 ft 0 kts 97°
2026-05-07 19:20 32.73291 -117.20171 23 ft 0 kts 97°
2026-05-07 19:21 32.73291 -117.20170 23 ft 0 kts 97°
2026-05-07 19:21 32.73291 -117.20171 23 ft 0 kts 97°
2026-05-07 19:32 32.73296 -117.20198 22 ft 4 kts 107°
2026-05-07 19:32 32.73306 -117.20227 27 ft 4 kts 120°
2026-05-07 19:32 32.73321 -117.20253 25 ft 4 kts 137°
2026-05-07 19:32 32.73343 -117.20271 26 ft 3 kts 162°
2026-05-07 19:33 32.73365 -117.20277 23 ft 4 kts 173°
2026-05-07 19:33 32.73392 -117.20278 23 ft 4 kts 189°
2026-05-07 19:33 32.73413 -117.20272 24 ft 3 kts 194°
2026-05-07 19:33 32.73439 -117.20263 24 ft 4 kts 197°
2026-05-07 19:34 32.73463 -117.20257 22 ft 3 kts 183°
2026-05-07 19:34 32.73489 -117.20259 25 ft 4 kts 154°
2026-05-07 19:34 32.73508 -117.20279 24 ft 4 kts 112°
2026-05-07 19:34 32.73514 -117.20309 24 ft 4 kts 99°
2026-05-07 19:35 32.73517 -117.20326 25 ft 0 kts 106°
2026-05-07 19:38 32.73512 -117.20306 24 ft 4 kts 106°
2026-05-07 19:38 32.73505 -117.20271 24 ft 5 kts 97°
2026-05-07 19:38 32.73517 -117.20234 23 ft 6 kts 47°
2026-05-07 19:38 32.73541 -117.20185 23 ft 7 kts 77°
2026-05-07 19:39 32.73530 -117.20115 24 ft 10 kts 105°
2026-05-07 19:39 32.73510 -117.20030 23 ft 11 kts 106°
2026-05-07 19:39 32.73489 -117.19940 23 ft 11 kts 104°
2026-05-07 19:39 32.73463 -117.19838 23 ft 15 kts 106°
2026-05-07 19:40 32.73428 -117.19692 24 ft 21 kts 106°
2026-05-07 19:40 32.73383 -117.19507 23 ft 24 kts 106°
2026-05-07 19:40 32.73337 -117.19318 22 ft 24 kts 106°
2026-05-07 19:40 32.73292 -117.19126 22 ft 24 kts 105°
2026-05-07 19:41 32.73244 -117.18936 23 ft 24 kts 107°
2026-05-07 19:41 32.73198 -117.18747 17 ft 24 kts 106°
2026-05-07 19:41 32.73152 -117.18556 24 ft 24 kts 106°
2026-05-07 19:41 32.73105 -117.18365 23 ft 24 kts 106°
2026-05-07 19:42 32.73060 -117.18178 23 ft 24 kts 106°
2026-05-07 19:42 32.73013 -117.17989 25 ft 24 kts 105°
2026-05-07 19:42 32.72966 -117.17801 23 ft 24 kts 109°
2026-05-07 19:42 32.72953 -117.17688 23 ft 11 kts 74°
2026-05-07 19:43 32.72955 -117.17679 23 ft 0 kts 74°
2026-05-07 19:43 32.72959 -117.17660 25 ft 5 kts 74°
2026-05-07 19:44 32.72972 -117.17611 23 ft 9 kts 72°
2026-05-07 19:44 32.73013 -117.17577 23 ft 5 kts 319°
2026-05-07 19:44 32.73029 -117.17619 23 ft 6 kts 285°
2026-05-07 19:44 32.73071 -117.17789 23 ft 56 kts 286°
2026-05-07 19:45 32.73255 -117.18553 26 ft 131 kts 286°
2026-05-07 19:45 32.73565 -117.19808 89 ft 183 kts 286°
2026-05-07 19:45 32.73924 -117.21252 1050 ft 178 kts 285°
2026-05-07 19:45 32.74291 -117.22641 1983 ft 175 kts 287°
2026-05-07 19:46 32.74663 -117.24061 2302 ft 191 kts 288°
2026-05-07 19:46 32.75063 -117.25662 2537 ft 208 kts 287°
2026-05-07 19:46 32.75470 -117.27339 2801 ft 220 kts 287°
2026-05-07 19:46 32.75906 -117.29196 3022 ft 240 kts 287°
2026-05-07 19:47 32.76344 -117.31109 3565 ft 244 kts 287°
2026-05-07 19:47 32.76541 -117.33135 4198 ft 248 kts 260°
2026-05-07 19:47 32.75772 -117.34941 4680 ft 257 kts 224°
2026-05-07 19:47 32.74198 -117.35919 5209 ft 261 kts 188°
2026-05-07 19:48 32.72402 -117.35664 5692 ft 267 kts 152°
2026-05-07 19:48 32.70930 -117.34366 6317 ft 265 kts 136°
2026-05-07 19:48 32.69635 -117.32816 6931 ft 265 kts 131°
2026-05-07 19:48 32.68394 -117.31194 7554 ft 265 kts 130°
2026-05-07 19:49 32.67152 -117.29569 8170 ft 266 kts 131°
2026-05-07 19:49 32.65886 -117.27961 8808 ft 267 kts 132°
2026-05-07 19:49 32.64598 -117.26362 9447 ft 268 kts 130°
2026-05-07 19:49 32.63548 -117.24545 10055 ft 267 kts 113°
2026-05-07 19:50 32.62947 -117.22429 10349 ft 279 kts 97°
2026-05-07 19:50 32.62736 -117.20069 10516 ft 298 kts 94°
2026-05-07 19:50 32.62522 -117.17543 10655 ft 318 kts 94°
2026-05-07 19:50 32.62284 -117.14856 10772 ft 337 kts 94°
2026-05-07 19:51 32.62066 -117.12032 11034 ft 348 kts 89°
2026-05-07 19:51 32.62345 -117.09177 11533 ft 350 kts 73°
2026-05-07 19:51 32.63159 -117.06454 12096 ft 351 kts 68°
2026-05-07 19:51 32.64046 -117.03742 12682 ft 353 kts 68°
2026-05-07 19:52 32.64637 -117.01939 13069 ft 355 kts 68°
2026-05-07 19:52 32.65535 -116.99202 13665 ft 357 kts 68°
2026-05-07 19:52 32.66353 -116.96411 14199 ft 360 kts 75°
2026-05-07 19:52 32.66702 -116.93451 14699 ft 365 kts 86°
2026-05-07 19:53 32.66775 -116.90424 15197 ft 368 kts 86°
2026-05-07 19:53 32.66845 -116.87375 15697 ft 371 kts 86°
2026-05-07 19:53 32.66915 -116.84301 16227 ft 374 kts 86°
2026-05-07 19:53 32.66983 -116.81210 16753 ft 376 kts 86°
2026-05-07 19:54 32.67051 -116.78098 17259 ft 379 kts 86°
2026-05-07 19:54 32.67120 -116.74962 17743 ft 382 kts 86°
2026-05-07 19:54 32.67139 -116.71797 18219 ft 385 kts 88°
2026-05-07 19:54 32.67100 -116.68605 18666 ft 388 kts 89°
2026-05-07 19:55 32.67028 -116.65392 19073 ft 391 kts 89°
2026-05-07 19:55 32.66947 -116.62155 19487 ft 394 kts 89°
2026-05-07 19:55 32.66869 -116.58890 19913 ft 397 kts 89°
2026-05-07 19:55 32.66800 -116.55605 20384 ft 399 kts 88°
2026-05-07 19:56 32.66741 -116.52308 20813 ft 400 kts 88°
2026-05-07 19:56 32.66687 -116.48996 21202 ft 403 kts 88°
2026-05-07 19:56 32.66632 -116.45660 21588 ft 406 kts 88°
2026-05-07 19:56 32.66617 -116.42308 21963 ft 407 kts 83°
2026-05-07 19:57 32.66892 -116.38965 22322 ft 408 kts 81°
2026-05-07 19:57 32.67204 -116.35610 22671 ft 410 kts 81°
2026-05-07 19:57 32.67520 -116.32232 23028 ft 413 kts 81°
2026-05-07 19:57 32.67834 -116.28831 23375 ft 416 kts 81°
2026-05-07 19:58 32.68145 -116.25409 23713 ft 418 kts 81°
2026-05-07 19:58 32.68454 -116.21969 24032 ft 420 kts 81°
2026-05-07 19:58 32.68761 -116.18516 24368 ft 421 kts 81°
2026-05-07 19:58 32.69070 -116.15053 24675 ft 423 kts 81°
2026-05-07 19:59 32.69379 -116.11570 24974 ft 425 kts 81°
2026-05-07 19:59 32.69689 -116.08072 25285 ft 427 kts 81°
2026-05-07 19:59 32.70001 -116.04558 25592 ft 429 kts 81°
2026-05-07 19:59 32.70314 -116.01033 25879 ft 430 kts 81°
2026-05-07 20:00 32.70640 -115.97495 26175 ft 432 kts 81°
2026-05-07 20:00 32.70975 -115.93945 26482 ft 433 kts 80°
2026-05-07 20:00 32.71309 -115.90386 26788 ft 434 kts 80°
2026-05-07 20:00 32.71641 -115.86814 27067 ft 436 kts 81°
2026-05-07 20:01 32.71972 -115.83229 27337 ft 437 kts 81°
2026-05-07 20:01 32.72297 -115.79683 27577 ft 439 kts 81°
2026-05-07 20:01 32.72625 -115.76070 27837 ft 441 kts 81°
2026-05-07 20:01 32.72952 -115.72441 28105 ft 443 kts 81°
2026-05-07 20:02 32.73281 -115.68800 28376 ft 444 kts 81°
2026-05-07 20:02 32.73613 -115.65141 28602 ft 447 kts 81°
2026-05-07 20:02 32.73943 -115.61463 28889 ft 448 kts 81°
2026-05-07 20:02 32.74272 -115.57777 29194 ft 448 kts 81°
2026-05-07 20:03 32.74598 -115.54099 29580 ft 447 kts 81°
2026-05-07 20:03 32.74914 -115.50428 29954 ft 446 kts 82°
2026-05-07 20:03 32.75129 -115.46752 30275 ft 447 kts 84°
2026-05-07 20:03 32.75241 -115.43061 30569 ft 447 kts 85°
2026-05-07 20:04 32.75292 -115.39372 30867 ft 447 kts 86°
2026-05-07 20:04 32.75321 -115.35688 31159 ft 446 kts 86°
2026-05-07 20:04 32.75354 -115.32008 31470 ft 445 kts 85°
2026-05-07 20:04 32.75407 -115.28339 31808 ft 443 kts 85°
2026-05-07 20:05 32.75481 -115.24687 32113 ft 442 kts 85°
2026-05-07 20:05 32.75567 -115.21040 32401 ft 441 kts 85°
2026-05-07 20:05 32.75657 -115.17399 32676 ft 441 kts 85°
2026-05-07 20:05 32.75746 -115.13765 32946 ft 440 kts 85°
2026-05-07 20:06 32.75833 -115.10131 33208 ft 440 kts 85°
2026-05-07 20:06 32.75915 -115.06502 33471 ft 439 kts 85°
2026-05-07 20:06 32.75993 -115.02873 33730 ft 439 kts 85°
2026-05-07 20:06 32.76070 -114.99249 34000 ft 439 kts 85°
2026-05-07 20:07 32.76146 -114.95624 34201 ft 439 kts 85°
2026-05-07 20:07 32.76219 -114.91998 34380 ft 440 kts 85°
2026-05-07 20:07 32.76289 -114.88366 34556 ft 440 kts 85°
2026-05-07 20:07 32.76360 -114.84726 34727 ft 441 kts 85°
2026-05-07 20:08 32.76431 -114.81078 34897 ft 442 kts 85°
2026-05-07 20:08 32.76499 -114.77423 34964 ft 443 kts 85°
2026-05-07 20:08 32.76637 -114.70100 34976 ft 443 kts 85°
2026-05-07 20:09 32.76773 -114.62777 34977 ft 443 kts 85°
2026-05-07 20:10 32.76942 -114.51792 34973 ft 443 kts 85°
2026-05-07 20:10 32.77038 -114.44462 34954 ft 444 kts 85°
2026-05-07 20:11 32.77135 -114.37130 34960 ft 444 kts 85°
2026-05-07 20:11 32.77226 -114.29790 34927 ft 445 kts 85°
2026-05-07 20:12 32.77317 -114.22437 34928 ft 445 kts 85°
2026-05-07 20:12 32.77401 -114.15072 34927 ft 446 kts 86°
2026-05-07 20:13 32.77473 -114.07703 34939 ft 446 kts 86°
2026-05-07 20:13 32.77548 -114.00384 34961 ft 445 kts 86°
2026-05-07 20:14 32.78171 -113.93128 34956 ft 440 kts 77°
2026-05-07 20:14 32.79212 -113.85970 34959 ft 439 kts 77°
2026-05-07 20:15 32.80235 -113.78810 34957 ft 439 kts 77°
2026-05-07 20:15 32.81253 -113.71652 34982 ft 439 kts 77°
2026-05-07 20:16 32.82266 -113.64505 34973 ft 438 kts 77°
2026-05-07 20:16 32.83274 -113.57371 34966 ft 437 kts 77°
2026-05-07 20:17 32.84279 -113.50247 34938 ft 437 kts 77°
2026-05-07 20:17 32.85281 -113.43123 34949 ft 437 kts 77°
2026-05-07 20:18 32.86272 -113.36008 34957 ft 436 kts 77°
2026-05-07 20:18 32.87253 -113.28907 34958 ft 434 kts 77°
2026-05-07 20:19 32.88235 -113.21819 34958 ft 434 kts 77°
2026-05-07 20:19 32.89220 -113.14746 34960 ft 433 kts 77°
2026-05-07 20:20 32.90189 -113.07669 34979 ft 433 kts 77°
2026-05-07 20:20 32.91156 -113.00605 34970 ft 432 kts 77°
2026-05-07 20:21 32.92119 -112.93551 34975 ft 431 kts 77°
2026-05-07 20:21 32.93071 -112.86504 34974 ft 431 kts 77°
2026-05-07 20:22 32.94019 -112.79460 34976 ft 431 kts 77°
2026-05-07 20:22 32.94962 -112.72423 34983 ft 430 kts 78°
2026-05-07 20:23 32.95437 -112.65325 34978 ft 435 kts 91°
2026-05-07 20:23 32.94796 -112.58158 34973 ft 435 kts 92°
2026-05-07 20:24 32.94147 -112.50993 34965 ft 435 kts 92°
2026-05-07 20:24 32.93502 -112.43834 34966 ft 435 kts 92°
2026-05-07 20:25 32.92858 -112.36733 34952 ft 434 kts 92°
2026-05-07 20:25 32.92206 -112.29603 34958 ft 433 kts 92°
2026-05-07 20:26 32.91547 -112.22475 34947 ft 433 kts 92°
2026-05-07 20:26 32.90884 -112.15349 34932 ft 433 kts 92°
2026-05-07 20:27 32.90219 -112.08219 34946 ft 433 kts 93°
2026-05-07 20:27 32.89551 -112.01089 34928 ft 433 kts 93°
2026-05-07 20:28 32.88877 -111.93960 34930 ft 434 kts 93°
2026-05-07 20:28 32.87703 -111.86905 34917 ft 437 kts 101°
2026-05-07 20:29 32.86147 -111.79911 34913 ft 437 kts 101°
2026-05-07 20:29 32.84598 -111.72915 34909 ft 438 kts 102°
2026-05-07 20:30 32.83037 -111.65914 34906 ft 438 kts 102°
2026-05-07 20:30 32.81470 -111.58908 34905 ft 438 kts 102°
2026-05-07 20:31 32.79902 -111.51900 34919 ft 439 kts 102°
2026-05-07 20:31 32.78320 -111.44872 34924 ft 441 kts 102°
2026-05-07 20:32 32.76736 -111.37837 34931 ft 441 kts 103°
2026-05-07 20:32 32.75145 -111.30789 34940 ft 442 kts 103°
2026-05-07 20:33 32.73547 -111.23744 34947 ft 442 kts 103°
2026-05-07 20:33 32.71940 -111.16697 34943 ft 442 kts 103°
2026-05-07 20:34 32.70342 -111.09696 34929 ft 442 kts 103°
2026-05-07 20:34 32.68719 -111.02600 34921 ft 443 kts 103°
2026-05-07 20:35 32.67117 -110.95592 34907 ft 443 kts 103°
2026-05-07 20:35 32.65498 -110.88537 34917 ft 443 kts 104°
2026-05-07 20:36 32.63865 -110.81475 34910 ft 444 kts 104°
2026-05-07 20:36 32.62226 -110.74406 34900 ft 445 kts 105°
2026-05-07 20:37 32.60581 -110.67326 34902 ft 445 kts 105°
2026-05-07 20:37 32.58930 -110.60244 34909 ft 446 kts 105°
2026-05-07 20:38 32.57281 -110.53154 34907 ft 446 kts 105°
2026-05-07 20:38 32.55631 -110.46065 34900 ft 446 kts 106°
2026-05-07 20:39 32.53969 -110.38971 34902 ft 447 kts 106°
2026-05-07 20:39 32.52297 -110.31874 34928 ft 448 kts 107°
2026-05-07 20:40 32.50889 -110.25916 34909 ft 449 kts 107°
2026-05-07 20:40 32.49201 -110.18789 34916 ft 450 kts 107°
2026-05-07 20:41 32.47511 -110.11649 34900 ft 451 kts 108°
2026-05-07 20:41 32.45816 -110.04495 34904 ft 452 kts 108°
2026-05-07 20:42 32.44111 -109.97327 34912 ft 453 kts 108°
2026-05-07 20:42 32.42396 -109.90154 34918 ft 453 kts 108°
2026-05-07 20:43 32.40671 -109.82978 34926 ft 453 kts 108°
2026-05-07 20:43 32.38940 -109.75799 34899 ft 454 kts 109°
2026-05-07 20:44 32.37209 -109.68610 34915 ft 455 kts 110°
2026-05-07 20:44 32.35471 -109.61410 34900 ft 456 kts 110°
2026-05-07 20:45 32.33724 -109.54195 34905 ft 457 kts 110°
2026-05-07 20:45 32.31970 -109.46975 34908 ft 457 kts 110°
2026-05-07 20:46 32.30219 -109.39791 34883 ft 458 kts 111°
2026-05-07 20:46 32.28447 -109.32542 34892 ft 460 kts 111°
2026-05-07 20:47 32.26829 -109.25220 34897 ft 465 kts 103°
2026-05-07 20:47 32.26103 -109.17602 34905 ft 467 kts 101°
2026-05-07 20:48 32.25379 -109.09967 34871 ft 468 kts 102°
2026-05-07 20:48 32.24635 -109.02316 34867 ft 470 kts 102°
2026-05-07 20:49 32.23893 -108.94636 34882 ft 471 kts 102°
2026-05-07 20:49 32.23150 -108.86938 34864 ft 473 kts 102°
2026-05-07 20:50 32.22397 -108.79205 34881 ft 475 kts 102°
2026-05-07 20:50 32.21631 -108.71414 35039 ft 480 kts 102°
2026-05-07 20:51 32.20855 -108.63573 35035 ft 481 kts 102°
2026-05-07 20:51 32.20076 -108.55723 35018 ft 482 kts 102°
2026-05-07 20:52 32.19299 -108.47865 34990 ft 482 kts 102°
2026-05-07 20:52 32.18515 -108.40003 34930 ft 483 kts 103°
2026-05-07 20:53 32.17717 -108.32124 34895 ft 484 kts 103°
2026-05-07 20:53 32.16903 -108.24222 34899 ft 485 kts 103°
2026-05-07 20:54 32.16085 -108.16312 34913 ft 486 kts 103°
2026-05-07 20:54 32.15274 -108.08389 34912 ft 486 kts 103°
2026-05-07 20:55 32.14453 -108.00471 34912 ft 486 kts 103°
2026-05-07 20:55 32.13624 -107.92556 34916 ft 486 kts 103°
2026-05-07 20:56 32.12789 -107.84648 34915 ft 486 kts 103°
2026-05-07 20:56 32.12371 -107.80692 35060 ft 486 kts 103°
2026-05-07 20:56 32.11952 -107.76736 35068 ft 486 kts 103°
2026-05-07 20:57 32.11110 -107.68822 35035 ft 487 kts 104°
2026-05-07 20:57 32.10255 -107.60890 35013 ft 488 kts 104°
2026-05-07 20:58 32.09398 -107.52945 34978 ft 489 kts 104°
2026-05-07 20:58 32.08544 -107.44991 34945 ft 489 kts 104°
2026-05-07 20:59 32.07680 -107.37038 34880 ft 490 kts 105°
2026-05-07 20:59 32.06802 -107.29060 34877 ft 491 kts 105°
2026-05-07 21:00 32.05919 -107.21117 34901 ft 493 kts 105°
2026-05-07 21:00 32.05028 -107.13102 34940 ft 493 kts 105°
2026-05-07 21:01 32.04136 -107.05082 34967 ft 494 kts 105°
2026-05-07 21:01 32.03238 -106.97047 34958 ft 495 kts 105°
2026-05-07 21:02 32.02326 -106.88993 34960 ft 496 kts 105°
2026-05-07 21:02 32.01408 -106.80926 35006 ft 498 kts 106°
2026-05-07 21:03 32.00486 -106.72829 35032 ft 500 kts 106°
2026-05-07 21:03 31.99549 -106.64704 35024 ft 501 kts 106°
2026-05-07 21:04 31.98610 -106.56550 35016 ft 503 kts 106°
2026-05-07 21:04 31.97663 -106.48379 35001 ft 503 kts 106°
2026-05-07 21:05 31.96716 -106.40203 35034 ft 504 kts 106°
2026-05-07 21:05 31.95746 -106.32017 35017 ft 505 kts 106°
2026-05-07 21:06 31.95119 -106.23725 35007 ft 514 kts 98°
2026-05-07 21:06 31.94996 -106.15349 34984 ft 515 kts 98°
2026-05-07 21:07 31.94858 -106.06857 34968 ft 516 kts 98°
2026-05-07 21:07 31.94716 -105.98471 34934 ft 516 kts 98°
2026-05-07 21:08 31.94574 -105.90016 34946 ft 517 kts 99°
2026-05-07 21:08 31.94415 -105.81552 34953 ft 517 kts 99°
2026-05-07 21:09 31.94253 -105.73074 34962 ft 518 kts 99°
2026-05-07 21:09 31.94090 -105.64596 34969 ft 518 kts 99°
2026-05-07 21:10 31.93920 -105.56103 34956 ft 519 kts 99°
2026-05-07 21:10 31.93739 -105.47595 34957 ft 520 kts 99°
2026-05-07 21:11 31.93554 -105.39077 34938 ft 521 kts 99°
2026-05-07 21:11 31.93274 -105.26272 34939 ft 522 kts 99°
2026-05-07 21:12 31.93096 -105.17718 34953 ft 524 kts 99°
2026-05-07 21:12 31.92915 -105.09145 34963 ft 524 kts 99°
2026-05-07 21:13 31.92720 -105.00566 34985 ft 525 kts 99°
2026-05-07 21:13 31.92518 -104.91978 34990 ft 525 kts 99°
2026-05-07 21:14 31.92318 -104.83383 34988 ft 525 kts 99°
2026-05-07 21:14 31.92109 -104.74789 34996 ft 526 kts 99°
2026-05-07 21:15 31.91892 -104.66186 35002 ft 526 kts 99°
2026-05-07 21:15 31.91671 -104.57578 35018 ft 526 kts 99°
2026-05-07 21:16 31.91441 -104.48973 35030 ft 526 kts 100°
2026-05-07 21:16 31.91204 -104.40431 35033 ft 526 kts 100°
2026-05-07 21:17 31.90960 -104.31826 35026 ft 526 kts 100°
2026-05-07 21:17 31.90716 -104.23220 35025 ft 526 kts 100°
2026-05-07 21:18 31.90461 -104.14619 35010 ft 526 kts 100°
2026-05-07 21:18 31.90206 -104.06007 35022 ft 527 kts 100°
2026-05-07 21:19 31.89953 -103.97395 35021 ft 527 kts 100°
2026-05-07 21:19 31.89682 -103.88785 35015 ft 527 kts 100°
2026-05-07 21:20 31.89399 -103.80172 34990 ft 527 kts 100°
2026-05-07 21:20 31.89118 -103.71552 34999 ft 527 kts 100°
2026-05-07 21:21 31.88832 -103.62928 35006 ft 528 kts 100°
2026-05-07 21:21 31.88544 -103.54304 34985 ft 528 kts 101°
2026-05-07 21:22 31.88244 -103.45678 34982 ft 528 kts 101°
2026-05-07 21:22 31.87935 -103.37047 34993 ft 528 kts 101°
2026-05-07 21:23 31.87618 -103.28415 35000 ft 528 kts 101°
2026-05-07 21:23 31.88097 -103.19699 35008 ft 541 kts 87°
2026-05-07 21:24 31.89283 -103.10951 34993 ft 541 kts 87°
2026-05-07 21:24 31.90447 -103.02191 35001 ft 542 kts 87°
2026-05-07 21:25 31.91402 -102.94910 35007 ft 542 kts 87°
2026-05-07 21:25 31.92548 -102.86139 35011 ft 542 kts 87°
2026-05-07 21:26 31.93701 -102.77363 35023 ft 542 kts 87°
2026-05-07 21:26 31.94843 -102.68586 35041 ft 542 kts 87°
2026-05-07 21:27 31.95969 -102.59799 35076 ft 543 kts 87°
2026-05-07 21:27 31.97097 -102.51007 35105 ft 543 kts 87°
2026-05-07 21:28 31.98220 -102.42212 35117 ft 543 kts 87°
2026-05-07 21:28 31.99344 -102.33408 35114 ft 543 kts 87°
2026-05-07 21:29 32.00461 -102.24601 35107 ft 544 kts 87°
2026-05-07 21:29 32.01575 -102.15789 35109 ft 544 kts 87°
2026-05-07 21:30 32.02675 -102.06976 35106 ft 544 kts 88°
2026-05-07 21:30 32.03755 -101.98221 35093 ft 543 kts 87°
2026-05-07 21:31 32.04842 -101.89405 35076 ft 544 kts 87°
2026-05-07 21:31 32.05930 -101.80581 35056 ft 544 kts 87°
2026-05-07 21:32 32.07007 -101.71756 35059 ft 544 kts 87°
2026-05-07 21:32 32.08077 -101.62928 35063 ft 544 kts 87°
2026-05-07 21:33 32.09142 -101.54098 35098 ft 544 kts 87°
2026-05-07 21:33 32.10200 -101.45252 35090 ft 545 kts 87°
2026-05-07 21:34 32.11252 -101.36407 35076 ft 545 kts 87°
2026-05-07 21:34 32.12298 -101.27614 35058 ft 545 kts 87°
2026-05-07 21:35 32.13342 -101.18757 35029 ft 545 kts 87°
2026-05-07 21:35 32.14379 -101.09892 35031 ft 545 kts 87°
2026-05-07 21:36 32.15412 -101.01026 35035 ft 546 kts 88°
2026-05-07 21:36 32.16434 -100.92151 35035 ft 546 kts 88°
2026-05-07 21:37 32.17447 -100.83275 35036 ft 546 kts 88°
2026-05-07 21:37 32.18467 -100.74399 35038 ft 546 kts 88°
2026-05-07 21:38 32.19479 -100.65513 35043 ft 546 kts 88°
2026-05-07 21:38 32.20478 -100.56629 35044 ft 546 kts 88°
2026-05-07 21:39 32.21474 -100.47740 35045 ft 546 kts 88°
2026-05-07 21:39 32.22467 -100.38849 35054 ft 546 kts 88°
2026-05-07 21:40 32.23458 -100.29956 35054 ft 546 kts 88°
2026-05-07 21:40 32.24431 -100.21060 35055 ft 546 kts 88°
2026-05-07 21:41 32.25388 -100.12161 35049 ft 546 kts 88°
2026-05-07 21:41 32.26358 -100.03254 35052 ft 547 kts 88°
2026-05-07 21:42 32.27327 -99.94336 35056 ft 547 kts 88°
2026-05-07 21:42 32.28237 -99.85417 35057 ft 546 kts 90°
2026-05-07 21:43 32.28475 -99.82232 35283 ft 538 kts 91°
2026-05-07 21:43 32.28622 -99.79861 35284 ft 540 kts 92°
2026-05-07 21:43 32.28829 -99.75414 35055 ft 542 kts 94°
2026-05-07 21:43 32.28990 -99.70976 35051 ft 542 kts 94°
2026-05-07 21:44 32.29333 -99.62066 35054 ft 543 kts 93°
2026-05-07 21:44 32.29775 -99.53143 35059 ft 544 kts 92°
2026-05-07 21:45 32.30271 -99.44214 35055 ft 545 kts 92°
2026-05-07 21:45 32.30747 -99.35340 35069 ft 545 kts 92°
2026-05-07 21:46 32.31186 -99.26404 35071 ft 545 kts 92°
2026-05-07 21:46 32.31606 -99.17462 35071 ft 545 kts 92°
2026-05-07 21:47 32.32038 -99.08506 34764 ft 547 kts 92°
2026-05-07 21:47 32.32254 -99.03998 33355 ft 552 kts 92°
2026-05-07 21:47 32.32468 -98.99457 31946 ft 552 kts 92°
2026-05-07 21:48 32.32683 -98.94943 30857 ft 545 kts 91°
2026-05-07 21:48 32.32900 -98.90567 30524 ft 521 kts 91°
2026-05-07 21:48 32.33112 -98.86362 30003 ft 507 kts 92°
2026-05-07 21:48 32.33309 -98.82212 29475 ft 504 kts 91°
2026-05-07 21:49 32.33494 -98.78088 28991 ft 500 kts 91°
2026-05-07 21:49 32.33673 -98.73998 28507 ft 496 kts 91°
2026-05-07 21:49 32.33851 -98.69937 28031 ft 493 kts 91°
2026-05-07 21:49 32.34029 -98.65898 27551 ft 491 kts 91°
2026-05-07 21:50 32.34208 -98.61882 27086 ft 488 kts 90°
2026-05-07 21:50 32.34389 -98.57884 26643 ft 485 kts 90°
2026-05-07 21:50 32.34568 -98.53910 26184 ft 483 kts 90°
2026-05-07 21:50 32.34744 -98.49956 25729 ft 480 kts 89°
2026-05-07 21:51 32.34916 -98.46020 25280 ft 478 kts 89°
2026-05-07 21:51 32.35088 -98.42104 24835 ft 476 kts 89°
2026-05-07 21:51 32.35257 -98.38208 24404 ft 474 kts 88°
2026-05-07 21:51 32.35424 -98.34328 23973 ft 472 kts 88°
2026-05-07 21:52 32.35588 -98.30510 23532 ft 470 kts 88°
2026-05-07 21:52 32.35751 -98.26662 23065 ft 467 kts 88°
2026-05-07 21:52 32.35909 -98.22844 22639 ft 463 kts 88°
2026-05-07 21:52 32.36064 -98.19002 22186 ft 460 kts 88°
2026-05-07 21:53 32.36211 -98.15285 21747 ft 457 kts 88°
2026-05-07 21:53 32.36359 -98.11543 21304 ft 454 kts 88°
2026-05-07 21:53 32.36509 -98.07823 20842 ft 451 kts 88°
2026-05-07 21:53 32.36657 -98.04127 20384 ft 449 kts 88°
2026-05-07 21:54 32.36803 -98.00448 19912 ft 447 kts 88°
2026-05-07 21:54 32.36946 -97.96793 19521 ft 442 kts 88°
2026-05-07 21:54 32.37082 -97.93164 19011 ft 441 kts 88°
2026-05-07 21:54 32.37215 -97.89573 18691 ft 434 kts 88°
2026-05-07 21:55 32.37352 -97.86019 18212 ft 431 kts 88°
2026-05-07 21:55 32.37491 -97.82496 17724 ft 427 kts 88°
2026-05-07 21:55 32.37629 -97.78998 17240 ft 424 kts 88°
2026-05-07 21:55 32.37764 -97.75531 16746 ft 420 kts 88°
2026-05-07 21:56 32.37894 -97.72106 16092 ft 412 kts 88°
2026-05-07 21:56 32.38021 -97.68766 15418 ft 397 kts 87°
2026-05-07 21:56 32.38356 -97.65631 15021 ft 374 kts 75°
2026-05-07 21:56 32.39187 -97.62796 14611 ft 360 kts 62°
2026-05-07 21:57 32.40462 -97.60266 14163 ft 357 kts 49°
2026-05-07 21:57 32.42112 -97.58107 13718 ft 352 kts 38°
2026-05-07 21:57 32.43887 -97.56110 13258 ft 352 kts 39°
2026-05-07 21:57 32.45652 -97.54102 12776 ft 352 kts 40°
2026-05-07 21:58 32.47409 -97.52087 12310 ft 352 kts 40°
2026-05-07 21:58 32.49100 -97.49990 11836 ft 354 kts 49°
2026-05-07 21:58 32.50388 -97.47491 11356 ft 357 kts 64°
2026-05-07 21:58 32.51132 -97.44710 11164 ft 350 kts 79°
2026-05-07 21:59 32.51443 -97.41900 11029 ft 339 kts 84°
2026-05-07 21:59 32.51707 -97.39167 10931 ft 330 kts 83°
2026-05-07 21:59 32.51983 -97.36461 10548 ft 330 kts 83°
2026-05-07 21:59 32.52270 -97.33779 10152 ft 326 kts 83°
2026-05-07 22:00 32.52559 -97.31137 9734 ft 322 kts 83°
2026-05-07 22:00 32.52846 -97.28522 9303 ft 318 kts 83°
2026-05-07 22:00 32.53128 -97.25938 8876 ft 315 kts 83°
2026-05-07 22:00 32.53401 -97.23378 8452 ft 312 kts 83°
2026-05-07 22:01 32.53669 -97.20842 8022 ft 309 kts 83°
2026-05-07 22:01 32.53934 -97.18323 7585 ft 307 kts 83°
2026-05-07 22:01 32.54196 -97.15824 7155 ft 305 kts 82°
2026-05-07 22:01 32.54456 -97.13341 6681 ft 301 kts 82°
2026-05-07 22:02 32.54710 -97.10911 6223 ft 295 kts 82°
2026-05-07 22:02 32.54960 -97.08518 5747 ft 289 kts 82°
2026-05-07 22:02 32.55235 -97.06191 5284 ft 281 kts 73°
2026-05-07 22:02 32.56172 -97.04243 4987 ft 269 kts 38°
2026-05-07 22:03 32.57806 -97.03373 4943 ft 258 kts
2026-05-07 22:03 32.59538 -97.03811 4951 ft 259 kts 333°
2026-05-07 22:03 32.61123 -97.04842 4944 ft 260 kts 335°
2026-05-07 22:03 32.62840 -97.05502 4949 ft 261 kts 351°
2026-05-07 22:04 32.64645 -97.05647 4936 ft 261 kts 359°
2026-05-07 22:04 32.66461 -97.05612 4693 ft 260 kts
2026-05-07 22:04 32.68263 -97.05583 4404 ft 258 kts
2026-05-07 22:04 32.70020 -97.05573 4078 ft 243 kts
2026-05-07 22:05 32.71647 -97.05567 3763 ft 226 kts
2026-05-07 22:05 32.73175 -97.05559 3484 ft 217 kts
2026-05-07 22:05 32.74676 -97.05551 3191 ft 214 kts
2026-05-07 22:05 32.76152 -97.05544 2915 ft 210 kts
2026-05-07 22:06 32.77584 -97.05536 2648 ft 199 kts
2026-05-07 22:06 32.78902 -97.05530 2403 ft 180 kts
2026-05-07 22:06 32.80094 -97.05525 2136 ft 163 kts
2026-05-07 22:06 32.81197 -97.05519 1919 ft 155 kts
2026-05-07 22:07 32.82265 -97.05513 1714 ft 152 kts
2026-05-07 22:07 32.83322 -97.05507 1513 ft 152 kts
2026-05-07 22:07 32.84375 -97.05502 1315 ft 151 kts
2026-05-07 22:07 32.85422 -97.05497 1116 ft 150 kts
2026-05-07 22:08 32.86461 -97.05491 929 ft 149 kts
2026-05-07 22:08 32.87487 -97.05483 721 ft 150 kts
2026-05-07 22:08 32.88527 -97.05480 598 ft 137 kts
2026-05-07 22:08 32.89344 -97.05472 602 ft 99 kts
2026-05-07 22:09 32.89811 -97.05459 612 ft 39 kts 12°
2026-05-07 22:09 32.89987 -97.05367 621 ft 24 kts 34°
2026-05-07 22:09 32.90119 -97.05247 601 ft 22 kts 65°
2026-05-07 22:09 32.90114 -97.05095 599 ft 19 kts 90°
2026-05-07 22:10 32.90114 -97.04970 598 ft 1 kts 89°
2026-05-07 22:10 32.90114 -97.04958 598 ft 2 kts 89°
2026-05-07 22:10 32.90114 -97.04954 598 ft 0 kts 89°
2026-05-07 22:11 32.90115 -97.04923 599 ft 9 kts 89°
2026-05-07 22:12 32.90116 -97.04841 599 ft 11 kts 90°
2026-05-07 22:12 32.90116 -97.04741 597 ft 13 kts 88°
2026-05-07 22:12 32.90134 -97.04627 597 ft 15 kts 89°
2026-05-07 22:12 32.90138 -97.04505 596 ft 15 kts 74°
2026-05-07 22:13 32.90183 -97.04448 596 ft 14 kts 39°
2026-05-07 22:13 32.90210 -97.04421 596 ft 2 kts 39°
2026-05-07 22:13 32.90215 -97.04416 596 ft 0 kts 39°